#timestamp,LO_Frequency,Hit,StdDev 
1588240815.1,286047001.8,N
1588240816.0,286047001.8,N
1588240835.8,286047004.3,N
1588240885.7,286047000.2,E
1588240895.6,286047000.3,N
1588240915.4,286046999.0,P
1588240935.3,286046998.8,N
1588240955.1,286046998.2,N
1588240975.9,286046999.4,N
1588240995.7,286046998.9,N
1588241015.5,286046999.1,N
1588241035.4,286046997.1,Y
1588241055.2,286046998.9,P
1588241075.0,286046998.8,P
1588241075.9,286046998.8,P
1588241095.8,286046998.9,Y
1588241115.6,286047000.6,P
1588241135.5,286047002.8,P
1588241155.3,286046999.9,N
1588241175.1,286046998.2,N
1588241195.9,286046998.1,N
1588241215.7,286046998.6,N
1588241235.6,286046999.0,N
1588241255.4,286046998.1,N
1588241275.2,286046998.8,N
1588241295.1,286046996.8,N
1588241296.0,286046996.8,N
1588241315.8,286046997.4,N
1588241335.7,286046997.5,N
1588241355.5,286046997.4,N
1588241375.3,286046997.2,N
1588241395.2,286046996.6,N
1588241415.0,286046995.1,Y
1588241415.9,286046995.1,P
1588241435.8,286046997.1,N
1588241455.6,286046997.4,N
1588241475.4,286046995.4,Y
1588241495.3,286046998.9,P
1588241515.1,286046999.2,N
1588241535.8,286046997.8,N
1588241555.7,286046997.5,N
1588241575.5,286046995.0,Y
1588241595.4,286046996.7,P
1588241615.2,286046999.4,N
1588241635.0,286046999.0,N
1588241635.9,286046999.0,N
1588241655.8,286046998.9,N
1588241675.6,286046999.6,N
1588241695.5,286046997.8,N
1588241715.3,286046997.9,N
1588241735.1,286046998.0,N
1588241755.9,286046998.0,N
1588241775.7,286046996.7,Y
1588241795.5,286046999.2,P
1588241815.4,286046999.5,N
1588241835.2,286046999.5,N
1588241855.1,286046995.1,Y
1588241856.0,286046995.1,P
1588241875.8,286046997.9,N
1588241895.6,286046997.4,N
1588241915.5,286046995.7,N
1588241935.3,286046999.6,N
1588241955.2,286046999.2,N
1588241975.9,286046996.7,N
1588241995.7,286046997.2,N
1588242015.6,286046997.4,N
1588242035.4,286046994.1,Y
1588242055.2,286046997.1,P
1588242075.1,286046997.8,P
1588242076.0,286046997.8,P
1588242095.8,286046995.8,Y
1588242115.7,286046998.8,P
1588242135.5,286046998.2,N
1588242155.3,286047000.8,N
1588242175.2,286047000.0,N
1588242195.0,286047000.5,N
1588242195.9,286047000.5,N
1588242215.8,286047000.9,N
1588242235.6,286046998.9,N
1588242255.4,286046999.5,N
1588242275.3,286046998.9,N
1588242295.1,286046999.1,N
1588242315.9,286046996.6,Y
1588242335.7,286046997.0,P
1588242355.5,286046998.1,N
1588242375.4,286046998.5,N
1588242395.2,286046998.3,N
1588242415.0,286046998.3,N
1588242415.9,286046998.3,N
1588242435.8,286046999.0,N
1588242455.6,286047000.7,N
1588242475.5,286047000.6,N
1588242495.3,286047002.8,N
1588242515.1,286047000.3,N
1588242535.9,286046999.8,N
1588242555.7,286047000.4,N
1588242575.6,286047000.3,N
1588242595.4,286046999.9,N
1588242615.2,286046999.8,N
1588242635.1,286047001.6,N
1588242636.0,286047001.6,N
1588242655.8,286047002.3,N
1588242675.7,286047002.6,N
1588242695.5,286047001.8,N
1588242715.3,286047004.0,N
1588242735.2,286047004.0,N
1588242755.0,286047004.3,N
1588242755.9,286047004.3,N
1588242775.7,286047001.3,N
1588242795.6,286047000.1,N
1588242815.4,286047002.4,N
1588242835.3,286047000.7,N
1588242855.1,286047001.9,N
1588242875.8,286047002.1,N
1588242895.7,286047002.8,N
1588242915.5,286047002.5,N
1588242935.4,286047003.8,N
1588242955.2,286047000.0,N
1588242975.0,286047000.5,N
1588242975.9,286047000.5,N
1588242995.8,286047001.5,N
1588243015.6,286047001.7,N
1588243035.5,286047003.0,N
1588243055.3,286047004.6,Y
1588243075.1,286047003.4,P
1588243095.9,286047003.5,P
1588243115.7,286047001.6,N
1588243135.5,286047006.0,Y
1588243155.4,286047000.4,P
1588243175.2,286046998.2,N
1588243195.1,286047000.0,N
1588243196.0,286047000.0,N
1588243215.8,286047000.5,N
1588243235.6,286047001.1,N
1588243255.5,286046998.6,N
1588243275.3,286047002.4,N
1588243295.2,286047000.7,N
1588243315.9,286047001.0,N
1588243335.7,286047000.5,N
1588243355.6,286047000.8,N
1588243375.4,286046999.7,N
1588243395.2,286047000.4,N
1588243415.1,286047000.8,N
1588243416.0,286047000.8,N
1588243435.8,286046999.9,N
1588243455.7,286047002.6,N
1588243475.5,286047001.6,N
1588243495.3,286047002.1,N
1588243515.2,286046999.9,N
1588243535.0,286047000.8,N
1588243535.9,286047000.8,N
1588243555.8,286047000.8,N
1588243575.6,286046999.9,N
1588243595.4,286047002.5,N
1588243615.3,286047000.4,N
1588243635.1,286047000.9,N
1588243655.9,286046998.5,N
1588243675.7,286047000.9,N
1588243695.5,286046998.2,N
1588243715.4,286047002.1,N
1588243735.2,286046999.7,N
1588243755.0,286047002.6,N
1588243755.9,286047002.6,N
1588243775.8,286047002.8,N
1588243795.6,286047000.9,N
1588243815.5,286046996.5,Y
1588243835.3,286046999.6,P
1588243855.2,286046998.2,N
1588243875.9,286047000.7,N
1588243895.7,286047000.1,N
1588243915.6,286047002.2,N
1588243935.4,286047002.1,N
1588243955.2,286047002.3,N
1588243975.1,286047004.4,Y
1588243976.0,286047004.4,P
1588243995.8,286047002.3,N
1588244015.7,286046999.7,N
1588244035.5,286047000.2,N
1588244055.4,286047000.9,N
1588244075.2,286046999.9,N
1588244095.0,286047003.1,N
1588244095.9,286047003.1,N
1588244115.8,286047004.0,N
1588244135.6,286047002.2,N
1588244155.5,286047001.9,N
1588244175.3,286047004.0,N
1588244195.1,286047000.7,N
1588244215.9,286046998.5,N
1588244235.7,286047000.6,N
1588244255.5,286047000.6,N
1588244275.4,286046999.7,N
1588244295.2,286047000.2,N
1588244315.1,286046999.7,N
1588244316.0,286046999.7,N
1588244335.8,286047002.6,N
1588244355.6,286047003.6,N
1588244375.5,286047001.3,N
1588244395.3,286047002.7,N
